Thermal, CA

9:28 PM PST on December 13, 2017 (GMT -0800)
Desert Resorts Regional

Weather History for KTRM - April, 2013

Change the Weather History Date:

Monday, April 8, 2013

  Actual Average Record
Temperature  
Mean Temperature 70 °F 68 °F  
Max Temperature 77 °F 86 °F 110 °F (1989)
Min Temperature 63 °F 51 °F 33 °F (1999)
Degree Days  
Heating Degree Days 0 1  
Month to date heating degree days 0 9  
Since 1 July heating degree days 1122 1166  
Cooling Degree Days 6 5  
Month to date cooling degree days 74 32  
Year to date cooling degree days 236 106  
Growing Degree Days 20 (Base 50)    
Moisture  
Dew Point 39 °F    
Average Humidity 39    
Maximum Humidity 56    
Minimum Humidity 21    
Precipitation  
Precipitation 0.00 in 0.00 in 0.34 in (2016)
Month to date precipitation 0.00 0.03  
Year to date precipitation 0.44 1.74  
Since 1 July precipitation 2.62  
Sea Level Pressure  
Sea Level Pressure 29.54 in    
Wind  
Wind Speed 17 mph (NW)    
Max Wind Speed 28 mph    
Max Gust Speed 46 mph    
Visibility 8 miles    
Events      
T = Trace of Precipitation, MM = Missing Value Source: NWS Daily Summary

Daily Weather History Graph

Daily Weather History Graph

Search for Another Location

Airport or City:

Trip Planner

Search our weather history database for the weather conditions in past years. The results will help you decide how hot, cold, wet, or windy it might be!

Date:

Astronomy

Apr. 08, 2013 Rise Set
Actual Time 6:22 AM PDT 7:10 PM PDT
Civil Twilight 5:57 AM PDT 7:36 PM PDT
Nautical Twilight 5:27 AM PDT 8:05 PM PDT
Astronomical Twilight 4:56 AM PDT 8:36 PM PDT
Moon 5:11 AM PDT (4/8) 5:52 PM PDT (4/8)
Length of Visible Light 13h 38m
Length of Day
12h 48m
Waning Crescent, 3% of the Moon is Illuminated
Apr 8
Waning Crescent
Apr 10
New
Apr 18
First Quarter
Apr 25
Full
May 2
Last Quarter

Hourly Weather History & Observations

Time (PDT) Temp. Dew Point Humidity Pressure Visibility Wind Dir Wind Speed Gust Speed Precip Events Conditions
12:52 AM 72.0 °F 48.9 °F 44% 29.62 in 10.0 mi NW 11.5 mph 21.9 mph N/A   Clear
1:52 AM 70.0 °F 48.9 °F 47% 29.61 in 10.0 mi NNW 16.1 mph - N/A   Clear
2:52 AM 68.0 °F 48.0 °F 49% 29.59 in 10.0 mi NNW 12.7 mph - N/A   Clear
3:52 AM 66.9 °F 48.9 °F 52% 29.58 in 10.0 mi NNW 12.7 mph - N/A   Clear
4:52 AM 64.9 °F 48.0 °F 54% 29.53 in 9.0 mi NNW 13.8 mph - N/A   Clear
5:36 AM 66.2 °F 46.4 °F 49% 29.53 in 6.0 mi NNW 16.1 mph 23.0 mph N/A   Haze
5:52 AM 66.0 °F 46.0 °F 48% 29.53 in 10.0 mi NW 10.4 mph - N/A   Scattered Clouds
6:52 AM 66.0 °F 43.0 °F 43% 29.53 in 10.0 mi NW 8.1 mph - N/A   Clear
7:52 AM 71.1 °F 37.9 °F 30% 29.51 in 10.0 mi NW 18.4 mph 23.0 mph N/A   Clear
8:52 AM 73.9 °F 36.0 °F 25% 29.48 in 8.0 mi NNW 25.3 mph 34.5 mph N/A   Partly Cloudy
9:27 AM 75.2 °F 35.6 °F 24% 29.48 in 2.5 mi West 25.3 mph 39.1 mph N/A   Haze
9:30 AM 75.2 °F 35.6 °F 24% 29.48 in 1.8 mi WNW 25.3 mph 39.1 mph N/A   Haze
9:39 AM 73.4 °F 35.6 °F 25% 29.48 in 3.0 mi WNW 17.3 mph 35.7 mph N/A   Haze
9:52 AM 73.9 °F 35.1 °F 24% 29.49 in 5.0 mi WNW 27.6 mph 40.3 mph N/A   Haze
10:52 AM 75.9 °F 34.0 °F 22% 29.51 in 10.0 mi NW 24.2 mph 31.1 mph N/A   Clear
11:52 AM 75.9 °F 36.0 °F 23% 29.50 in 8.0 mi WNW 20.7 mph 34.5 mph N/A   Clear
11:59 AM 75.2 °F 35.6 °F 24% 29.49 in 9.0 mi West 17.3 mph 35.7 mph N/A   Clear
12:21 PM 75.2 °F 37.4 °F 25% 29.49 in 10.0 mi North 19.6 mph 29.9 mph N/A   Clear
12:52 PM 77.0 °F 37.0 °F 24% 29.50 in 10.0 mi NW 17.3 mph 26.5 mph N/A   Clear
1:52 PM 75.0 °F 37.9 °F 26% 29.51 in 10.0 mi North 21.9 mph 29.9 mph N/A   Clear
2:24 PM 75.2 °F 33.8 °F 22% 29.51 in 7.0 mi West 18.4 mph 34.5 mph N/A   Clear
2:52 PM 75.0 °F 35.1 °F 23% 29.52 in 9.0 mi West 15.0 mph 34.5 mph N/A   Clear
3:52 PM 71.1 °F 34.0 °F 26% 29.54 in 6.0 mi West 20.7 mph 40.3 mph N/A   Haze
4:52 PM 71.1 °F 33.1 °F 25% 29.53 in 10.0 mi NW 12.7 mph 24.2 mph N/A   Clear
5:52 PM 71.1 °F 35.1 °F 27% 29.53 in 10.0 mi NNW 19.6 mph 26.5 mph N/A   Partly Cloudy
6:52 PM 68.0 °F 35.1 °F 30% 29.55 in 10.0 mi NNW 13.8 mph 24.2 mph N/A   Clear
7:52 PM 66.0 °F 36.0 °F 33% 29.58 in 10.0 mi NW 19.6 mph 29.9 mph N/A   Clear
8:52 PM 64.9 °F 37.9 °F 37% 29.61 in 10.0 mi NW 19.6 mph 29.9 mph N/A   Clear
9:52 PM 64.0 °F 37.9 °F 38% 29.63 in 10.0 mi NNW 16.1 mph - N/A   Clear
10:52 PM 64.0 °F 36.0 °F 35% 29.65 in 10.0 mi NNW 17.3 mph - N/A   Clear
11:52 PM 63.0 °F 35.1 °F 35% 29.67 in 10.0 mi NNW 20.7 mph 27.6 mph N/A   Clear